Location: Sternwarte_Laufen
(47.9344°N, 12.9346°E)
Time: 00:41:47
(UTC+02:00)

ISS - Pass Details

Date: 25 May 2017
Orbit: 402 x 408 km, 51.6° (Epoch: 27 May)

Event Time Altitude Azimuth Distance (km) Brightness Sun altitude
Rises 02:41:11 0° 292° (WNW) 2,332 0.0 -17.8°
Reaches altitude 10° 02:43:17 10° 295° (WNW) 1,469 -1.0 -17.7°
Maximum altitude 02:46:34 69° 19° (NNE) 438 -3.6 -17.5°
Drops below altitude 10° 02:49:50 10° 104° (ESE) 1,460 -0.9 -17.2°
Sets 02:51:55 0° 106° (ESE) 2,317 0.1 -17.1°
